This is the latest recevied weather packets stored in our database for station/object EA3IK-1. If no packets are shown the sender has not sent any weather packets the latest 10 day(s).
| Time | Temp. | Humidity | Pressure | Rain* | Wind** | Luminosity | Snow |
|---|---|---|---|---|---|---|---|
| 1777347382 | 12.78° C | 64% | 1014.3 hPa | 0 mm | - | - | - |
| 1777346481 | 12.78° C | 65% | 1014.4 hPa | 0 mm | - | - | - |
| 1777345580 | 12.78° C | 66% | 1014.5 hPa | 0 mm | - | - | - |
| 1777344679 | 13.33° C | 66% | 1014.6 hPa | 0 mm | - | - | - |
| 1777343779 | 12.78° C | 67% | 1014.7 hPa | 0 mm | - | - | - |
| 1777342878 | 13.33° C | 68% | 1014.7 hPa | 0 mm | - | - | - |
| 1777341977 | 13.33° C | 67% | 1014.8 hPa | 0 mm | - | - | - |
| 1777341076 | 13.33° C | 67% | 1014.8 hPa | 0 mm | - | - | - |
| 1777340175 | 13.89° C | 68% | 1015 hPa | 0 mm | - | - | - |
| 1777339274 | 13.89° C | 69% | 1015.2 hPa | 0 mm | - | - | - |
| 1777338374 | 13.89° C | 68% | 1015.5 hPa | 0 mm | - | - | - |
| 1777337473 | 13.33° C | 69% | 1015.7 hPa | 0 mm | - | - | - |
| 1777336572 | 13.89° C | 69% | 1015.7 hPa | 0 mm | - | - | - |
| 1777335671 | 14.44° C | 70% | 1015.6 hPa | 0 mm | - | - | - |
| 1777334770 | 13.89° C | 69% | 1015.8 hPa | 0 mm | - | - | - |
| 1777333869 | 13.89° C | 70% | 1015.9 hPa | 0 mm | - | - | - |
| 1777332968 | 14.44° C | 70% | 1016.1 hPa | 0 mm | - | - | - |
| 1777332067 | 15° C | 70% | 1016.2 hPa | 0 mm | - | - | - |
| 1777331166 | 14.44° C | 70% | 1016.3 hPa | 0 mm | - | - | - |
| 1777330266 | 15° C | 70% | 1016.4 hPa | 0 mm | - | - | - |
| 1777329365 | 15° C | 69% | 1016.5 hPa | 0 mm | - | - | - |
| 1777328464 | 15° C | 70% | 1016.5 hPa | 0 mm | - | - | - |
| 1777327563 | 15° C | 70% | 1016.5 hPa | 0 mm | - | - | - |
| 1777326662 | 15° C | 70% | 1016.6 hPa | 0 mm | - | - | - |
| 1777325761 | 15.56° C | 70% | 1016.6 hPa | 0 mm | - | - | - |
* Rain latest hour (hover to see other rain measurements)
** Current wind speed in m/s (hover to see current wind gust speed)